W5SDC Weather Reports


time (UTC)temp
C
wind
direction
speed
KPH
gust
KPH
rain 1hr
cm
rain 24hr
cm
rain mn
cm
humidity
%
barometer
mb
20260510022516 26 153 3.2 4.8 0.00 0.00 0.00 76 1010.7
20260510022203 26 174 1.6 4.8 0.00 0.00 0.00 76 1010.7
20260510021529 26 180 0.0 1.6 0.00 0.00 0.00 75 1010.6
20260510021017 27 201 1.6 4.8 0.00 0.00 0.00 74 1010.5
20260510020523 27 167 4.8 6.4 0.00 0.00 0.00 73 1010.5
20260510020031 27 155 4.8 6.4 0.00 0.00 0.00 73 1010.3
20260510015519 27 141 4.8 8.0 0.00 0.00 0.00 72 1010.3
20260510015025 27 157 4.8 8.0 0.00 0.00 0.00 72 1010.3
20260510014532 27 157 6.4 9.7 0.00 0.00 0.00 71 1010.3
20260510014020 27 167 6.4 9.7 0.00 0.00 0.00 71 1010.3
20260510013527 27 166 6.4 8.0 0.00 0.00 0.00 70 1010.1
20260510013033 28 138 6.4 8.0 0.00 0.00 0.00 69 1010.1
20260510012602 28 137 6.4 8.0 0.00 0.00 0.00 68 1010.1
20260510012028 28 139 6.4 11.3 0.00 0.00 0.00 68 1010.1
20260510011517 28 146 6.4 9.7 0.00 0.00 0.00 67 1010.1
20260510011023 28 136 6.4 11.3 0.00 0.00 0.00 66 1010.0
20260510010550 28 128 8.0 12.9 0.00 0.00 0.00 65 1010.0
20260510010058 29 138 8.0 11.3 0.00 0.00 0.00 64 1010.0
20260510005645 29 148 9.7 12.9 0.00 0.00 0.00 63 1010.0
20260510005031 29 139 8.0 12.9 0.00 0.00 0.00 62 1009.9
20260510004520 30 138 8.0 11.3 0.00 0.00 0.00 61 1009.8
20260510004026 30 128 8.0 11.3 0.00 0.00 0.00 61 1009.8
20260510003533 30 133 8.0 11.3 0.00 0.00 0.00 60 1009.7
20260510003041 30 138 8.0 9.7 0.00 0.00 0.00 59 1009.7
20260510002527 30 156 8.0 9.7 0.00 0.00 0.00 59 1009.6
20260510002036 30 155 8.0 9.7 0.00 0.00 0.00 58 1009.6
20260510001543 31 126 9.7 12.9 0.00 0.00 0.00 57 1009.5
20260510001029 31 136 8.0 11.3 0.00 0.00 0.00 57 1009.5
20260510000517 31 116 6.4 9.7 0.00 0.00 0.00 56 1009.5
20260510000024 31 123 6.4 9.7 0.00 0.00 0.00 55 1009.3
20260509235530 31 130 6.4 9.7 0.00 0.00 0.00 55 1009.3
20260509235039 31 143 8.0 11.3 0.00 0.00 0.00 55 1009.3
20260509234525 31 147 9.7 12.9 0.00 0.00 0.00 55 1009.3
20260509234032 31 127 8.0 11.3 0.00 0.00 0.00 54 1009.3
20260509233540 32 148 9.7 11.3 0.00 0.00 0.00 53 1009.3
20260509233047 32 155 8.0 11.3 0.00 0.00 0.00 53 1009.3
20260509232515 32 119 8.0 9.7 0.00 0.00 0.00 53 1009.2
20260509232022 32 144 9.7 12.9 0.00 0.00 0.00 52 1009.1
20260509231528 32 160 8.0 12.9 0.00 0.00 0.00 52 1009.1
20260509231017 32 136 8.0 11.3 0.00 0.00 0.00 51 1009.1
20260509230543 32 140 8.0 9.7 0.00 0.00 0.00 51 1009.1
20260509230030 32 135 8.0 9.7 0.00 0.00 0.00 50 1009.1
20260509225538 32 119 8.0 11.3 0.00 0.00 0.00 51 1009.1
20260509225025 32 137 8.0 9.7 0.00 0.00 0.00 50 1009.3
20260509224532 32 123 8.0 9.7 0.00 0.00 0.00 51 1009.3
20260509224020 32 109 8.0 11.3 0.00 0.00 0.00 52 1009.3
20260509223526 32 132 8.0 12.9 0.00 0.00 0.00 53 1009.1
20260509223033 33 176 4.8 9.7 0.00 0.00 0.00 55 1009.1
20260509222521 33 289 1.6 4.8 0.00 0.00 0.00 55 1009.2
20260509222028 32 109 6.4 9.7 0.00 0.00 0.00 56 1009.3
20260509221536 32 136 4.8 8.0 0.00 0.00 0.00 55 1009.3
20260509221023 33 259 3.2 4.8 0.00 0.00 0.00 54 1009.3
20260509220529 32 356 4.8 6.4 0.00 0.00 0.00 56 1009.3
20260509220017 32 302 1.6 8.0 0.00 0.00 0.00 56 1009.5
20260509215544 32 144 4.8 8.0 0.00 0.00 0.00 56 1009.5
20260509215031 32 26 4.8 6.4 0.00 0.00 0.00 56 1009.5
20260509214519 32 343 4.8 8.0 0.00 0.00 0.00 56 1009.6
20260509214026 32 193 3.2 6.4 0.00 0.00 0.00 57 1009.6
20260509213532 32 86 4.8 6.4 0.00 0.00 0.00 57 1009.7
20260509213021 32 60 4.8 8.0 0.00 0.00 0.00 58 1009.7
20260509212627 31 140 6.4 8.0 0.00 0.00 0.00 59 1009.8
20260509212036 32 136 8.0 9.7 0.00 0.00 0.00 58 1009.8
20260509211542 32 144 6.4 9.7 0.00 0.00 0.00 57 1009.8
20260509211029 31 24 8.0 12.9 0.00 0.00 0.00 57 1009.8
20260509210517 31 36 9.7 14.5 0.00 0.00 0.00 56 1009.8
20260509210024 32 103 9.7 12.9 0.00 0.00 0.00 56 1010.2
20260509205530 32 73 8.0 11.3 0.00 0.00 0.00 56 1010.2
20260509205018 31 117 6.4 11.3 0.00 0.00 0.00 56 1010.2
20260509204525 31 131 6.4 9.7 0.00 0.00 0.00 57 1010.3
20260509204031 31 137 9.7 14.5 0.00 0.00 0.00 59 1010.3
20260509203520 31 121 8.0 11.3 0.00 0.00 0.00 60 1010.5
20260509203026 31 93 6.4 11.3 0.00 0.00 0.00 58 1010.5
20260509202533 31 115 8.0 11.3 0.00 0.00 0.00 55 1010.7
20260509202041 29 144 11.3 14.5 0.00 0.00 0.00 57 1010.8
20260509201528 29 128 12.9 16.1 0.00 0.00 0.00 58 1010.8
20260509201016 30 146 9.7 20.9 0.00 0.00 0.00 63 1010.9
20260509200543 31 356 9.7 12.9 0.00 0.00 0.00 64 1010.9
20260509200030 31 20 9.7 12.9 0.00 0.00 0.00 63 1010.8
20260509195518 31 344 6.4 8.0 0.00 0.00 0.00 66 1010.8
20260509195024 31 4 6.4 11.3 0.00 0.00 0.00 64 1010.8
20260509194551 32 46 8.0 14.5 0.00 0.00 0.00 61 1010.8
20260509194040 32 67 4.8 8.0 0.00 0.00 0.00 59 1010.8
20260509193526 32 283 4.8 8.0 0.00 0.00 0.00 60 1010.9
20260509193033 31 309 6.4 12.9 0.00 0.00 0.00 60 1010.9
20260509192521 31 297 3.2 6.4 0.00 0.00 0.00 61 1010.9
20260509192027 31 313 9.7 14.5 0.00 0.00 0.00 64 1010.9
20260509191516 30 321 8.0 12.9 0.00 0.00 0.00 66 1010.9
20260509191023 31 337 9.7 11.3 0.00 0.00 0.00 65 1011.0
20260509190529 32 325 8.0 12.9 0.00 0.00 0.00 65 1011.0
20260509190017 32 284 6.4 11.3 0.00 0.00 0.00 60 1011.5
20260509185525 32 316 9.7 14.5 0.00 0.00 0.00 60 1011.5
20260509185030 31 305 3.2 8.0 0.00 0.00 0.00 64 1011.5
20260509184519 31 311 6.4 8.0 0.00 0.00 0.00 64 1011.5
20260509184025 32 258 4.8 8.0 0.00 0.00 0.00 62 1011.6
20260509183532 32 272 6.4 11.3 0.00 0.00 0.00 62 1011.7
20260509183020 31 184 1.6 4.8 0.00 0.00 0.00 65 1011.7
20260509182627 31 287 3.2 8.0 0.00 0.00 0.00 64 1011.7
20260509182015 31 277 4.8 6.4 0.00 0.00 0.00 64 1011.7
20260509181522 31 256 6.4 8.0 0.00 0.00 0.00 64 1011.9
20260509181028 30 210 4.8 8.0 0.00 0.00 0.00 66 1012.2
20260509180537 31 240 4.8 9.7 0.00 0.00 0.00 64 1012.2
20260509180023 32 301 4.8 11.3 0.00 0.00 0.00 64 1011.8
20260509175550 32 243 4.8 8.0 0.00 0.00 0.00 64 1011.8
20260509175018 31 301 4.8 14.5 0.00 0.00 0.00 67 1012.0
20260509174526 30 243 6.4 11.3 0.00 0.00 0.00 69 1012.0
20260509174051 30 289 3.2 9.7 0.00 0.00 0.00 70 1012.1
20260509173540 29 214 4.8 9.7 0.00 0.00 0.00 71 1012.4
20260509173026 29 211 4.8 8.0 0.00 0.00 0.00 72 1012.4
20260509172533 29 158 4.8 9.7 0.00 0.00 0.00 71 1012.6
20260509172021 30 226 3.2 6.4 0.00 0.00 0.00 71 1012.7
20260509171528 31 205 3.2 6.4 0.00 0.00 0.00 69 1012.7
20260509171016 30 270 3.2 8.0 0.00 0.00 0.00 71 1012.7
20260509170523 30 211 4.8 11.3 0.00 0.00 0.00 73 1012.7
20260509170050 30 204 6.4 9.7 0.00 0.00 0.00 75 1012.6
20260509165517 30 206 8.0 12.9 0.00 0.00 0.00 74 1012.6
20260509165024 30 265 6.4 11.3 0.00 0.00 0.00 75 1012.7
20260509164531 30 232 6.4 11.3 0.00 0.00 0.00 74 1012.9
20260509164059 29 251 4.8 9.7 0.00 0.00 0.00 77 1012.9
20260509163526 28 224 6.4 9.7 0.00 0.00 0.00 79 1012.9
20260509163033 28 233 6.4 11.3 0.00 0.00 0.00 79 1012.9
20260509162521 28 222 6.4 8.0 0.00 0.00 0.00 80 1012.7
20260509162027 28 214 8.0 11.3 0.00 0.00 0.00 82 1012.7
20260509161516 27 214 9.7 16.1 0.00 0.00 0.00 84 1012.7
20260509161022 27 187 12.9 17.7 0.00 0.00 0.00 84 1012.7
20260509160529 26 219 9.7 12.9 0.00 0.00 0.00 86 1012.7
20260509160018 25 199 12.9 16.1 0.00 0.00 0.00 88 1012.7
20260509155524 26 227 11.3 20.9 0.00 0.00 0.00 87 1012.7
20260509155051 26 216 9.7 14.5 0.00 0.00 0.00 87 1012.6
20260509154518 26 188 12.9 19.3 0.00 0.00 0.00 85 1012.6
20260509154025 27 198 11.3 16.1 0.00 0.00 0.00 85 1012.5
20260509153532 26 187 8.0 12.9 0.00 0.00 0.00 86 1012.4
20260509153020 26 209 11.3 16.1 0.00 0.00 0.00 86 1012.4
20260509152527 27 201 9.7 16.1 0.00 0.00 0.00 84 1012.1
20260509152033 28 196 8.0 12.9 0.00 0.00 0.00 82 1012.0
20260509151522 29 149 6.4 9.7 0.00 0.00 0.00 78 1012.0
20260509151028 30 229 9.7 16.1 0.00 0.00 0.00 75 1011.9
20260509150517 30 210 8.0 11.3 0.00 0.00 0.00 76 1011.9
20260509150023 30 212 4.8 8.0 0.00 0.00 0.00 75 1012.0
20260509145530 30 210 4.8 9.7 0.00 0.00 0.00 76 1012.0
20260509145018 30 192 6.4 12.9 0.00 0.00 0.00 76 1012.0
20260509144545 29 225 4.8 8.0 0.00 0.00 0.00 77 1012.0
20260509144111 30 216 8.0 11.3 0.00 0.00 0.00 77 1012.0
20260509143519 30 211 4.8 6.4 0.00 0.00 0.00 76 1011.8
20260509143026 30 207 3.2 6.4 0.00 0.00 0.00 76 1011.8
20260509142533 30 261 3.2 4.8 0.00 0.00 0.00 77 1011.7
20260509142021 28 188 4.8 8.0 0.00 0.00 0.00 78 1011.7
20260509141528 28 178 3.2 6.4 0.00 0.00 0.00 80 1011.5
20260509141016 27 186 4.8 8.0 0.00 0.00 0.00 83 1011.1
20260509140543 27 201 6.4 11.3 0.00 0.00 0.00 84 1011.1
20260509140029 27 197 4.8 8.0 0.00 0.00 0.00 86 1011.3
20260509135538 26 182 6.4 11.3 0.00 0.00 0.00 87 1011.3
20260509135024 26 205 6.4 9.7 0.00 0.00 0.00 88 1011.3
20260509134530 26 146 6.4 9.7 0.00 0.00 0.00 90 1011.2
20260509134019 25 180 6.4 12.9 0.00 0.00 0.00 90 1011.2
20260509133526 25 181 6.4 8.0 0.00 0.00 0.00 92 1011.4
20260509133032 24 183 6.4 11.3 0.00 0.00 0.00 94 1011.4
20260509132520 24 165 8.0 12.9 0.00 0.00 0.00 96 1011.5
20260509132027 23 210 9.7 16.1 0.00 0.00 0.00 97 1011.5
20260509131515 23 169 8.0 11.3 0.00 0.00 0.00 97 1011.5
20260509131042 23 170 9.7 14.5 0.00 0.00 0.00 99 1011.4
20260509130528 23 184 9.7 12.9 0.00 0.00 0.00 99 1011.4
20260509130037 23 158 8.0 11.3 0.00 0.00 0.00 99 1011.9
20260509125523 22 186 4.8 8.0 0.00 0.00 0.00 99 1011.9
20260509125030 22 187 3.2 4.8 0.00 0.00 0.00 99 1011.9
20260509124558 22 201 1.6 3.2 0.00 0.00 0.00 99 1011.8
20260509124045 22 223 1.6 4.8 0.00 0.00 0.00 99 1011.9
20260509123531 22 270 0.0 1.6 0.00 0.00 0.00 99 1011.9
20260509123019 21 283 3.2 6.4 0.00 0.00 0.00 99 1011.9
20260509122527 21 284 4.8 6.4 0.00 0.00 0.00 99 1011.8
20260509122033 21 268 3.2 4.8 0.00 0.00 0.00 99 1011.7
20260509121521 21 255 0.0 3.2 0.00 0.00 0.00 99 1011.9
20260509121028 21 301 1.6 3.2 0.00 0.00 0.00 99 1012.2
20260509120516 21 307 3.2 4.8 0.00 0.00 0.00 99 1012.2
20260509120023 21 334 3.2 6.4 0.00 0.00 0.00 99 1012.2
20260509115529 21 348 3.2 6.4 0.00 0.00 0.00 99 1012.2
20260509115018 21 293 0.0 3.2 0.00 0.00 0.00 99 1012.2
20260509114525 21 336 3.2 4.8 0.00 0.00 0.00 99 1012.2
20260509114031 21 34 1.6 4.8 0.00 0.00 0.00 99 1012.3
20260509113519 21 0.0 0.0 0.00 0.00 0.00 99 1012.4
20260509113026 21 203 1.6 3.2 0.00 0.00 0.00 99 1012.4
20260509112553 21 177 1.6 3.2 0.00 0.00 0.00 99 1012.8
20260509112041 21 154 1.6 4.8 0.00 0.00 0.00 99 1012.9
20260509111527 21 0.0 0.0 0.00 0.00 0.00 99 1013.0
20260509111015 21 0.0 0.0 0.00 0.00 0.00 99 1013.1
20260509110522 21 0.0 0.0 0.00 0.00 0.00 99 1013.1
20260509110029 21 0 0.0 1.6 0.00 0.00 0.00 99 1012.9
20260509105517 21 8 3.2 6.4 0.00 0.00 0.00 99 1012.9
20260509105024 21 355 6.4 8.0 0.00 0.00 0.00 99 1013.1
20260509104530 21 311 3.2 6.4 0.00 0.00 0.00 99 1013.2
20260509104039 21 309 3.2 3.2 0.00 0.00 0.00 99 1013.2
20260509103525 21 283 4.8 8.0 0.00 0.00 0.00 99 1013.2
20260509103032 21 319 6.4 9.7 0.00 0.00 0.00 99 1013.2
20260509102520 21 315 4.8 6.4 0.00 0.00 0.00 99 1013.0
20260509102027 21 317 4.8 8.0 0.00 0.00 0.00 99 1012.9
20260509101533 21 312 4.8 6.4 0.00 0.00 0.00 99 1012.7
20260509101122 21 328 4.8 6.4 0.00 0.00 0.00 99 1012.4
20260509100528 21 325 4.8 6.4 0.00 0.00 0.00 99 1012.4
20260509100016 22 324 3.2 4.8 0.00 0.00 0.00 99 1012.2
20260509095523 22 329 3.2 4.8 0.00 0.00 0.00 99 1012.2
20260509095029 22 339 4.8 4.8 0.00 0.00 0.00 99 1011.9
20260509094538 22 356 4.8 6.4 0.00 0.00 0.00 99 1011.7
20260509094024 21 16 1.6 4.8 0.00 0.00 0.00 99 1011.7
20260509093551 21 106 1.6 3.2 0.00 0.00 0.00 99 1011.5
20260509093020 21 0.0 0.0 0.00 0.00 0.00 99 1011.5
20260509092526 21 0.0 0.0 0.00 0.00 0.00 99 1011.4
20260509092053 21 0.0 0.0 0.00 0.00 0.00 99 1011.3
20260509091521 22 288 0.0 3.2 0.00 0.00 0.00 99 1011.3
20260509091048 22 30 1.6 3.2 0.00 0.00 0.00 99 1011.3
20260509090516 22 348 1.6 6.4 0.00 0.00 0.00 99 1011.3
20260509090023 22 24 3.2 4.8 0.00 0.00 0.00 99 1011.7
20260509085529 22 44 1.6 4.8 0.00 0.00 0.00 99 1011.7
20260509085018 22 348 1.6 4.8 0.00 0.00 0.00 99 1011.7
20260509084524 22 359 4.8 6.4 0.00 0.00 0.00 99 1011.7
20260509084031 22 323 3.2 4.8 0.00 0.00 0.00 99 1011.7
20260509083519 22 332 1.6 4.8 0.00 0.00 0.00 99 1011.9
20260509083026 22 0.0 0.0 0.00 0.00 0.00 99 1011.9
20260509082532 22 338 0.0 3.2 0.00 0.00 0.00 99 1011.9
20260509082020 22 321 1.6 4.8 0.00 0.00 0.00 99 1011.9
20260509081527 22 320 3.2 4.8 0.00 0.00 0.00 99 1012.0
20260509081036 22 312 1.6 3.2 0.00 0.00 0.00 99 1012.2
20260509080522 22 0.0 0.0 0.00 0.00 0.00 99 1012.2
20260509080029 22 0.0 0.0 0.00 0.00 0.00 99 1012.2
20260509075517 22 132 1.6 4.8 0.00 0.00 0.00 99 1012.2
20260509075044 22 131 1.6 3.2 0.00 0.00 0.00 99 1012.0
20260509074531 22 69 0.0 3.2 0.00 0.00 0.00 99 1011.9
20260509074018 22 356 1.6 4.8 0.00 0.00 0.00 99 1012.0
20260509073525 22 0.0 0.0 0.00 0.00 0.00 99 1012.2
20260509073052 22 0.0 0.0 0.00 0.00 0.00 99 1012.2
20260509072520 22 0.0 0.0 0.00 0.00 0.00 99 1012.3
20260509072027 22 0.0 0.0 0.00 0.00 0.00 99 1012.4
20260509071535 22 0.0 0.0 0.00 0.00 0.00 99 1012.4
20260509071022 22 0.0 0.0 0.00 0.00 0.00 99 1012.4
20260509070528 22 0.0 0.0 0.00 0.00 0.00 99 1012.4
20260509070017 22 0.0 0.0 0.00 0.00 0.00 99 1012.2
20260509065523 22 0.0 0.0 0.00 0.00 0.00 99 1012.2
20260509065030 22 270 0.0 1.6 0.00 0.00 0.00 99 1012.2
20260509064518 22 274 3.2 6.4 0.00 0.00 0.00 99 1012.2
20260509064025 22 335 1.6 4.8 0.00 0.00 0.00 99 1012.2
20260509063531 22 0.0 0.0 0.00 0.00 0.00 99 1012.2
20260509063020 22 0.0 0.0 0.00 0.00 0.00 99 1012.2
20260509062526 22 284 1.6 3.2 0.00 0.00 0.00 99 1012.1
20260509062033 22 203 1.6 4.8 0.00 0.00 0.00 99 1012.0
20260509061521 22 199 0.0 4.8 0.00 0.00 0.00 99 1011.9
20260509061028 22 145 1.6 4.8 0.00 0.00 0.00 99 1011.7
20260509060516 22 168 4.8 8.0 0.00 0.00 0.00 99 1011.7
20260509060023 22 186 6.4 9.7 0.00 0.00 0.00 99 1011.7
20260509055529 22 179 6.4 8.0 0.00 0.00 0.00 99 1011.7
20260509055018 22 192 8.0 11.3 0.00 0.00 0.00 99 1011.7
20260509054524 22 197 3.2 6.4 0.00 0.00 0.00 99 1011.7
20260509054031 21 211 3.2 6.4 0.00 0.00 0.00 99 1011.5
20260509053519 21 190 4.8 6.4 0.00 0.00 0.00 99 1010.8
20260509053046 21 202 4.8 8.0 0.00 0.00 0.00 99 1010.8
20260509052532 21 171 4.8 8.0 0.00 0.00 0.00 99 1010.7
20260509052041 21 159 6.4 11.3 0.00 0.00 0.00 99 1010.6
20260509051527 21 137 6.4 9.7 0.00 0.00 0.00 99 1010.6
20260509051016 21 160 6.4 8.0 0.00 0.00 0.00 99 1010.7
20260509050522 21 161 4.8 8.0 0.00 0.00 0.00 99 1010.7
20260509050029 21 148 4.8 6.4 0.00 0.00 0.00 99 1010.7
20260509045537 21 168 4.8 8.0 0.00 0.00 0.00 99 1010.7
20260509045024 21 156 4.8 6.4 0.00 0.00 0.00 99 1010.9
20260509044530 21 173 1.6 3.2 0.00 0.00 0.00 99 1011.0
20260509044019 21 158 0.0 3.2 0.00 0.00 0.00 99 1011.1
20260509043525 21 0.0 0.0 0.00 0.00 0.00 98 1011.2
20260509043032 21 173 1.6 4.8 0.00 0.00 0.00 98 1011.2
20260509042540 22 173 1.6 4.8 0.00 0.00 0.00 97 1011.3
20260509042027 22 186 3.2 6.4 0.00 0.00 0.00 97 1011.3
20260509041534 22 141 4.8 4.8 0.00 0.00 0.00 97 1011.4
20260509041022 22 172 3.2 4.8 0.00 0.00 0.00 97 1011.4
20260509040528 22 170 4.8 6.4 0.00 0.00 0.00 96 1011.4
20260509040037 22 184 3.2 8.0 0.00 0.00 0.00 96 1011.3
20260509035523 22 179 4.8 6.4 0.00 0.00 0.00 96 1011.3
20260509035050 22 184 1.6 6.4 0.00 0.00 0.00 96 1011.2
20260509034538 22 162 1.6 4.8 0.00 0.00 0.00 96 1011.1
20260509034025 22 169 4.8 8.0 0.00 0.00 0.00 96 1011.1
20260509033531 22 182 4.8 8.0 0.00 0.00 0.00 96 1010.9
20260509033019 22 154 4.8 8.0 0.00 0.00 0.00 95 1010.9
20260509032546 22 192 6.4 8.0 0.00 0.00 0.00 95 1010.9
20260509032033 22 182 4.8 8.0 0.00 0.00 0.00 95 1010.9
20260509031521 22 176 4.8 8.0 0.00 0.00 0.00 95 1010.9
20260509031028 22 170 4.8 6.4 0.00 0.00 0.00 95 1010.9
20260509030516 22 176 4.8 8.0 0.00 0.00 0.00 94 1010.9
20260509030023 22 179 6.4 9.7 0.00 0.00 0.00 94 1010.8
20260509025529 23 175 4.8 8.0 0.00 0.00 0.00 93 1010.8
20260509025018 23 166 8.0 11.3 0.00 0.00 0.00 93 1010.7
20260509024545 23 177 6.4 9.7 0.00 0.00 0.00 93 1010.7
20260509024031 23 132 4.8 8.0 0.00 0.00 0.00 92 1010.7
20260509023519 23 159 4.8 8.0 0.00 0.00 0.00 92 1010.6
20260509023026 23 150 6.4 8.0 0.00 0.00 0.00 92 1010.6